Cherokee Observed Data For Previous 48 Hours

Caption
Day and Hour Reservoir Elevation (behind dam)* Tailwater Elevation (below dam)* Average Hourly Discharge*
2/16/2019 2 AM EST 1,051.10 928.71 15,675
2/16/2019 3 AM EST 1,051.11 928.72 15,715
2/16/2019 4 AM EST 1,051.11 928.72 15,679
2/16/2019 5 AM EST 1,051.10 928.73 15,658
2/16/2019 6 AM EST 1,051.09 928.74 15,697
2/16/2019 7 AM EST 1,051.11 928.73 15,686
2/16/2019 8 AM EST 1,051.09 928.72 15,708
2/16/2019 9 AM EST 1,051.10 928.74 15,705
2/16/2019 10 AM EST 1,051.09 928.73 15,729
2/16/2019 11 AM EST 1,051.08 928.73 15,743
2/16/2019 12 PM EST 1,051.08 928.73 15,710
2/16/2019 1 PM EST 1,051.07 928.72 15,668
2/16/2019 2 PM EST 1,051.06 928.72 15,701
2/16/2019 3 PM EST 1,051.06 928.72 15,735
2/16/2019 4 PM EST 1,051.06 928.74 15,728
2/16/2019 5 PM EST 1,051.05 928.74 15,753
2/16/2019 6 PM EST 1,051.04 928.73 15,749
2/16/2019 7 PM EST 1,051.03 928.74 15,753
2/16/2019 8 PM EST 1,051.04 928.73 15,738
2/16/2019 9 PM EST 1,051.04 928.73 15,777
2/16/2019 10 PM EST 1,051.05 928.72 15,788
2/16/2019 11 PM EST 1,051.04 928.72 15,806
2/17/2019 12 AM EST 1,051.03 928.74 15,780
2/17/2019 1 AM EST 1,051.03 928.73 15,772
2/17/2019 2 AM EST 1,051.01 928.73 15,743
2/17/2019 3 AM EST 1,051.01 928.73 15,730
2/17/2019 4 AM EST 1,051.00 928.73 15,745
2/17/2019 5 AM EST 1,051.01 928.72 15,741
2/17/2019 6 AM EST 1,050.97 928.72 15,728
2/17/2019 7 AM EST 1,050.99 928.73 15,719
2/17/2019 8 AM EST 1,050.96 928.74 15,748
2/17/2019 9 AM EST 1,051.02 928.74 15,757
2/17/2019 10 AM EST 1,051.02 928.74 15,753
2/17/2019 11 AM EST 1,051.07 928.74 15,753
2/17/2019 12 PM EST 1,051.07 928.73 15,764
2/17/2019 1 PM EST 1,051.07 928.73 15,782
2/17/2019 2 PM EST 1,051.08 928.73 15,738
2/17/2019 3 PM EST 1,051.09 928.72 15,736
2/17/2019 4 PM EST 1,051.08 928.73 15,755
2/17/2019 5 PM EST 1,051.08 928.72 15,751
2/17/2019 6 PM EST 1,051.08 928.73 15,740
2/17/2019 7 PM EST 1,051.11 928.71 15,771
2/17/2019 8 PM EST 1,051.13 928.75 15,769
2/17/2019 9 PM EST 1,051.13 928.74 15,764
2/17/2019 10 PM EST 1,051.16 928.73 15,752
2/17/2019 11 PM EST 1,051.22 928.73 15,786
2/18/2019 12 AM EST 1,051.24 928.74 15,773
2/18/2019 1 AM EST 1,051.27 928.75 15,780
2/18/2019 2 AM EST 1,051.29 928.74 15,762
2/18/2019 3 AM EST 1,051.33 928.74 15,753
2/18/2019 4 AM EST 1,051.35 928.75 15,791
2/18/2019 5 AM EST 1,051.38 928.74 15,765
2/18/2019 6 AM EST 1,051.41 928.74 15,757
2/18/2019 7 AM EST 1,051.44 928.74 15,756
2/18/2019 8 AM EST 1,051.46 928.74 15,778
2/18/2019 9 AM EST 1,051.50 928.74 15,759
2/18/2019 10 AM EST 1,051.53 928.75 15,740
2/18/2019 11 AM EST 1,051.57 928.73 15,763
2/18/2019 12 PM EST 1,051.60 928.74 15,775
2/18/2019 1 PM EST 1,051.61 928.74 15,768
2/18/2019 2 PM EST 1,051.63 928.74 15,721
2/18/2019 3 PM EST 1,051.66 928.74 15,725
2/18/2019 4 PM EST 1,051.69 928.74 15,719
2/18/2019 5 PM EST 1,051.73 928.75 15,774
2/18/2019 6 PM EST 1,051.76 928.74 15,776
2/18/2019 7 PM EST 1,051.80 928.74 15,765

Elevations are in feet above sea level. Discharges are in cubic feet per second and are reported at the end of the hour.